Wind_Speed
16 16 16 16 16 16 16 16 16 16 15 15 15 14 14 14 13 13 13 13 12 12 11 11 10 10 10 9 9 9 9 8 7 7 6 5 5 4 3 2 2 2 3
17 17 18 17 17 17 17 17 17 17 16 16 16 15 15 15 15 14 14 14 13 13 13 12 12 11 11 11 10 10 10 10 9 9 8 7 6 5 5 4 3 3 3
19 19 19 19 19 19 19 18 18 18 18 17 17 17 17 17 16 16 16 15 15 15 14 14 13 13 13 12 12 11 11 11 11 10 10 9 8 8 7 6 5 5 4
21 21 21 20 20 20 19 19 19 19 19 18 18 18 18 18 18 17 17 17 17 16 16 15 15 15 14 14 13 13 13 13 12 12 11 11 10 10 9 8 7 7 6
22 22 22 22 22 21 21 20 20 20 20 20 19 19 19 19 19 19 18 18 18 17 17 17 16 16 16 15 15 14 14 14 14 13 12 12 12 11 11 10 9 9 8
22 23 23 23 23 22 22 22 22 22 21 21 21 21 21 21 21 20 19 19 19 18 18 18 18 18 17 17 17 16 16 15 15 15 14 13 13 13 13 12 11 11 10
24 24 24 24 24 24 24 23 23 23 22 22 22 22 22 23 23 22 21 20 20 20 20 19 19 19 19 18 18 18 17 17 17 16 16 15 15 15 14 14 13 13 12
25 25 25 26 26 25 25 24 24 24 24 23 23 23 23 24 25 24 23 23 22 21 21 20 20 20 19 19 19 19 19 18 18 18 17 17 17 16 16 15 15 15 14
26 26 26 26 27 27 27 26 25 25 25 25 24 24 25 25 26 25 25 25 24 23 22 22 21 21 21 21 21 20 20 20 19 19 19 18 18 18 17 17 17 16 16
27 27 28 28 28 27 27 27 27 26 26 26 26 26 26 26 27 26 26 26 26 25 24 23 22 22 22 22 23 23 22 22 21 20 20 19 19 19 19 19 18 18 18
28 28 29 29 29 29 29 29 28 28 27 27 27 27 27 27 27 27 27 27 27 27 26 26 25 24 24 23 24 24 24 24 23 22 22 21 21 21 21 20 20 20 20
29 29 30 30 30 30 30 29 29 29 29 28 28 27 27 28 29 29 29 28 28 28 28 27 27 26 26 25 25 26 26 26 25 24 23 23 23 23 23 22 22 22 21
30 30 31 31 31 31 31 30 30 29 29 29 29 29 28 28 28 29 29 29 29 29 28 28 28 27 27 27 27 27 27 27 26 25 25 25 24 24 24 24 24 24 24
32 32 32 32 32 32 32 31 31 30 30 29 29 29 29 28 28 28 28 29 29 29 29 29 29 28 28 27 28 28 27 27 27 27 26 26 25 25 25 25 25 25 25
33 33 34 34 33 33 33 33 33 32 32 31 30 30 30 29 29 29 28 28 29 29 29 29 29 30 29 28 28 28 28 28 27 27 27 28 27 26 26 25 25 26 26
34 34 35 35 34 34 34 34 34 34 34 33 32 32 32 31 30 30 29 29 29 29 29 29 30 30 30 30 29 29 28 28 29 29 28 28 29 28 27 26 26 26 27
35 35 35 35 35 35 35 35 36 35 35 35 34 34 34 33 32 31 31 30 30 29 30 30 31 31 31 31 31 30 30 30 30 29 29 29 29 29 28 28 28 28 29
36 36 37 37 37 36 36 36 36 36 36 36 36 35 35 35 34 33 33 32 31 31 30 31 31 31 31 31 31 32 31 31 31 31 31 31 30 29 29 29 29 30 30
38 37 37 37 38 38 38 37 37 37 38 37 37 36 35 36 35 35 34 33 33 32 32 31 32 32 32 31 31 31 32 32 32 32 32 32 31 31 31 31 31 31 32
38 38 38 38 38 38 38 38 39 39 39 39 38 37 36 36 37 36 35 35 35 34 34 33 32 33 33 33 32 32 32 32 32 32 32 32 32 33 32 32 32 32 33
39 39 39 39 40 40 40 39 40 40 40 39 38 37 37 37 37 37 37 37 36 36 36 36 35 34 34 34 34 34 34 33 33 33 33 33 33 33 33 33 33 34 34
40 40 40 40 41 42 42 41 41 41 41 40 39 38 39 38 38 38 38 38 38 38 38 37 37 36 36 35 35 35 35 35 35 34 34 34 34 34 34 34 35 34 34
41 41 41 42 42 43 43 42 42 41 42 42 41 40 40 40 39 39 39 39 39 38 38 38 37 37 37 37 37 36 36 36 36 36 36 36 36 36 36 36 36 35 35
42 42 42 42 43 44 44 44 44 43 42 42 42 41 42 41 40 41 40 40 40 40 39 39 38 38 38 38 38 37 37 37 38 37 37 36 36 37 37 37 37 37 37
42 42 43 44 44 45 45 45 45 44 44 44 44 43 43 43 42 42 41 41 41 41 40 40 40 39 39 39 39 39 38 38 38 38 38 38 38 38 38 38 38 38 38
43 43 44 44 45 45 46 46 46 45 45 45 45 44 43 43 43 43 43 43 42 41 40 41 41 41 40 41 40 40 40 39 39 39 38 38 39 39 38 38 38 39 39
Wind_Direction
250 250 249 249 247 244 243 244 244 244 243 243 242 239 237 236 235 234 233 232 231 228 225 225 224 222 223 223 221 220 219 217 216 215 214 210 209 206 205 203 184 178 178
252 250 249 249 248 246 245 245 246 245 245 244 243 241 238 236 234 234 233 233 232 230 228 227 227 227 226 226 225 226 228 226 225 223 223 221 221 222 221 219 208 208 206
253 250 249 248 248 247 247 247 246 246 245 245 244 242 239 236 235 235 234 235 234 233 232 230 231 232 231 231 231 231 231 230 231 231 231 230 229 229 231 229 225 227 226
253 252 250 249 249 249 248 248 248 247 246 245 244 243 241 238 237 238 238 237 235 235 235 235 234 235 235 236 236 235 235 235 236 236 236 235 234 234 234 235 234 234 235
252 252 252 251 250 250 250 250 250 249 248 246 245 244 242 240 239 240 241 240 237 236 236 238 237 237 238 239 239 238 238 240 241 240 239 239 237 237 237 238 239 239 239
251 251 251 251 251 252 252 251 251 251 250 248 247 245 243 241 240 241 242 242 241 240 239 240 240 240 240 240 241 241 241 243 243 242 243 243 241 240 239 240 241 242 243
252 251 251 252 251 252 251 251 251 251 251 249 248 247 245 243 242 243 244 244 245 244 243 243 243 243 243 244 244 244 244 245 245 246 246 246 244 243 242 242 243 244 246
253 252 251 252 252 252 252 251 251 250 250 250 248 247 245 244 243 245 245 246 246 246 246 246 246 245 245 245 246 247 247 247 248 248 248 247 247 246 245 245 247 247 248
253 253 253 252 253 252 252 251 250 250 250 249 248 247 246 245 244 245 245 245 246 247 248 248 247 247 246 246 247 247 248 249 250 250 250 250 249 248 248 248 249 249 250
254 254 254 253 253 252 252 253 252 251 250 249 248 248 247 247 246 247 247 247 247 247 248 249 249 248 248 248 249 249 249 250 251 252 251 251 251 251 249 250 251 252 252
255 255 255 254 254 253 253 253 253 252 251 250 249 249 248 248 248 249 250 250 249 249 249 250 250 251 250 250 250 250 250 250 250 251 252 252 253 252 251 252 253 253 254
256 255 255 254 254 254 254 253 252 252 252 251 251 251 250 249 250 250 251 251 251 250 250 251 252 252 253 253 251 251 251 251 250 251 252 252 253 254 253 253 254 254 255
256 256 256 255 255 254 253 253 252 252 252 252 252 252 251 251 251 251 250 251 251 251 250 250 252 253 254 253 253 252 251 251 251 251 251 252 253 254 254 253 254 254 256
256 256 257 256 255 254 253 252 251 251 251 251 252 251 251 252 251 251 251 251 251 250 251 251 251 253 254 254 253 253 252 251 251 251 252 252 253 254 255 256 256 256 257
258 257 257 256 255 254 252 250 250 250 250 251 252 252 251 251 251 250 250 250 250 250 250 251 252 252 252 254 255 254 253 252 252 253 253 253 254 255 256 256 257 257 257
259 258 257 256 255 254 251 250 250 250 251 251 252 252 251 251 251 250 250 250 250 250 250 251 253 252 251 252 254 255 254 254 252 252 253 254 254 255 256 256 258 259 259
259 258 257 256 255 254 252 250 249 249 251 252 251 251 252 252 251 250 250 250 250 252 252 252 253 252 252 252 253 254 254 254 253 252 253 255 255 255 256 257 259 260 261
259 258 257 255 255 253 252 251 250 250 251 251 251 252 252 252 252 250 249 249 250 251 252 253 252 252 253 253 253 253 254 254 254 254 254 255 256 257 257 258 260 262 263
258 257 257 256 254 253 252 251 251 250 250 251 251 251 252 252 251 250 249 249 249 251 252 254 252 251 252 253 253 254 255 255 256 256 256 256 256 258 259 260 261 262 263
257 256 256 255 255 254 252 252 251 250 251 252 251 251 252 252 251 250 250 250 250 251 252 252 253 253 252 253 253 253 255 255 256 257 258 258 257 257 259 261 261 262 263
256 256 255 255 255 254 253 252 251 250 250 251 251 251 251 253 252 251 251 251 251 252 252 253 254 254 254 253 253 253 254 255 256 257 257 258 258 258 259 260 261 262 263
256 255 255 254 255 255 254 253 253 252 250 250 249 249 250 251 252 251 250 251 251 252 253 254 254 254 255 254 254 254 253 254 256 258 258 258 259 259 260 261 262 263 264
256 255 254 254 254 253 253 252 250 251 249 248 249 249 250 250 251 251 251 251 252 253 252 253 255 254 254 254 253 253 253 253 255 257 258 258 259 260 261 263 264 263 264
257 256 254 254 254 253 252 252 249 249 250 249 249 249 250 250 251 251 251 252 252 253 252 253 255 255 254 253 253 253 254 254 255 257 258 259 260 261 262 263 263 263 264
256 256 255 254 253 253 253 252 250 249 250 249 249 249 251 251 251 251 250 252 253 253 253 254 254 255 254 253 253 254 254 255 256 258 259 260 261 262 263 263 263 264 266
256 255 254 254 253 252 252 251 251 250 250 249 248 249 250 251 251 251 251 251 253 253 253 254 254 255 255 254 254 254 255 256 258 259 261 262 262 262 263 264 264 265 267
Height
5835 5835 5836 5837 5838 5839 5840 5841 5842 5843 5844 5845 5846 5847 5848 5849 5850 5851 5852 5853 5854 5855 5856 5857 5859 5860 5861 5861 5862 5863 5864 5865 5866 5867 5868 5868 5869 5869 5870 5870 5871 5871 5872
5832 5833 5834 5835 5836 5837 5838 5839 5840 5841 5842 5843 5844 5845 5846 5847 5848 5850 5851 5852 5853 5854 5855 5856 5857 5858 5859 5860 5861 5862 5863 5864 5865 5866 5867 5867 5868 5869 5869 5870 5870 5871 5872
5829 5830 5831 5832 5833 5834 5835 5836 5837 5838 5839 5840 5841 5842 5844 5845 5846 5847 5849 5850 5851 5852 5853 5854 5856 5857 5858 5859 5860 5861 5862 5863 5864 5865 5866 5867 5867 5868 5869 5869 5870 5871 5871
5826 5827 5828 5829 5830 5831 5832 5833 5834 5835 5836 5837 5839 5840 5841 5842 5844 5845 5846 5848 5849 5850 5851 5852 5854 5855 5856 5857 5858 5859 5860 5861 5862 5863 5864 5865 5866 5867 5868 5868 5869 5870 5871
5822 5823 5824 5825 5826 5827 5829 5830 5831 5832 5833 5834 5836 5837 5838 5839 5841 5842 5844 5845 5846 5848 5849 5850 5851 5853 5854 5855 5856 5857 5858 5859 5860 5861 5862 5864 5864 5865 5866 5867 5868 5869 5870
5818 5819 5820 5821 5822 5824 5825 5826 5827 5828 5830 5831 5832 5833 5835 5836 5838 5839 5841 5842 5844 5845 5846 5848 5849 5850 5851 5853 5854 5855 5856 5857 5858 5859 5861 5862 5863 5863 5864 5865 5866 5867 5868
5814 5815 5816 5817 5818 5820 5821 5822 5823 5825 5826 5827 5828 5830 5831 5833 5834 5836 5838 5839 5841 5842 5843 5845 5846 5847 5849 5850 5851 5852 5853 5855 5856 5857 5858 5859 5860 5861 5862 5863 5864 5865 5866
5809 5811 5812 5813 5814 5815 5817 5818 5819 5820 5822 5823 5824 5826 5827 5829 5830 5832 5834 5836 5837 5838 5840 5841 5843 5844 5845 5847 5848 5849 5850 5852 5853 5854 5855 5856 5858 5859 5860 5861 5862 5863 5864
5805 5806 5807 5808 5809 5811 5812 5813 5815 5816 5817 5818 5820 5821 5823 5825 5826 5828 5830 5832 5833 5835 5836 5838 5839 5840 5842 5843 5844 5846 5847 5848 5849 5851 5852 5853 5854 5856 5857 5858 5859 5860 5861
5800 5801 5802 5803 5804 5805 5807 5808 5809 5811 5812 5814 5815 5817 5818 5820 5822 5823 5825 5827 5829 5830 5832 5833 5835 5836 5838 5839 5840 5842 5843 5844 5846 5847 5848 5850 5851 5852 5853 5855 5856 5857 5858
5794 5795 5796 5797 5799 5800 5801 5803 5804 5805 5807 5809 5810 5811 5813 5815 5817 5818 5820 5822 5824 5825 5827 5829 5830 5832 5833 5835 5836 5837 5838 5840 5842 5843 5844 5846 5847 5848 5849 5851 5852 5853 5854
5788 5789 5790 5791 5792 5794 5795 5797 5798 5800 5801 5803 5805 5806 5808 5810 5811 5813 5815 5816 5818 5820 5822 5823 5825 5827 5828 5830 5831 5832 5833 5835 5837 5838 5840 5841 5843 5844 5845 5846 5848 5849 5850
5781 5782 5783 5785 5786 5787 5789 5790 5792 5794 5795 5797 5799 5801 5802 5804 5806 5807 5809 5811 5812 5814 5816 5818 5820 5821 5823 5824 5825 5827 5828 5830 5831 5833 5835 5836 5838 5839 5840 5842 5843 5844 5846
5774 5775 5776 5777 5779 5780 5782 5784 5785 5787 5789 5791 5793 5795 5796 5798 5800 5802 5803 5805 5806 5808 5810 5812 5814 5816 5817 5819 5820 5821 5822 5824 5826 5828 5830 5831 5833 5834 5836 5837 5838 5840 5841
5766 5768 5769 5770 5771 5773 5775 5776 5778 5781 5783 5785 5786 5788 5790 5792 5794 5796 5797 5799 5801 5802 5804 5806 5808 5809 5811 5812 5814 5815 5817 5819 5820 5822 5824 5825 5827 5829 5830 5832 5833 5834 5836
5758 5759 5760 5762 5763 5765 5767 5769 5771 5773 5775 5777 5779 5781 5783 5785 5787 5789 5791 5793 5794 5796 5798 5799 5801 5803 5804 5806 5808 5809 5811 5813 5814 5816 5818 5819 5821 5823 5825 5826 5828 5829 5830
5749 5750 5752 5753 5755 5756 5758 5761 5763 5765 5767 5769 5771 5773 5775 5777 5779 5782 5784 5786 5788 5789 5791 5793 5794 5796 5798 5799 5801 5803 5804 5806 5808 5810 5812 5813 5815 5817 5819 5820 5822 5823 5824
5740 5741 5742 5744 5745 5747 5749 5751 5754 5756 5758 5761 5763 5765 5768 5770 5772 5774 5776 5779 5781 5782 5784 5786 5788 5789 5791 5792 5794 5796 5798 5799 5801 5803 5805 5807 5809 5810 5812 5814 5816 5817 5818
5730 5731 5732 5734 5736 5738 5739 5741 5744 5747 5749 5752 5755 5757 5759 5761 5763 5766 5768 5771 5773 5775 5777 5779 5780 5782 5784 5785 5787 5789 5791 5793 5794 5796 5798 5800 5802 5804 5805 5807 5809 5810 5811
5720 5722 5723 5725 5726 5728 5730 5732 5735 5738 5740 5743 5745 5748 5750 5752 5755 5757 5760 5762 5764 5767 5769 5771 5773 5774 5776 5778 5780 5782 5784 5785 5787 5789 5791 5793 5795 5796 5798 5800 5801 5802 5804
5710 5712 5713 5715 5717 5719 5721 5723 5725 5727 5730 5733 5735 5738 5741 5743 5745 5748 5751 5753 5756 5758 5760 5762 5764 5766 5768 5770 5772 5774 5776 5778 5780 5782 5784 5785 5787 5789 5791 5792 5794 5795 5796
5699 5701 5703 5705 5706 5708 5711 5713 5714 5717 5719 5722 5725 5728 5731 5733 5736 5738 5741 5744 5747 5749 5752 5754 5756 5758 5760 5762 5764 5766 5769 5771 5773 5774 5776 5778 5780 5781 5783 5784 5786 5787 5788
5688 5690 5692 5694 5696 5697 5700 5702 5705 5707 5708 5711 5715 5718 5721 5724 5726 5729 5731 5734 5736 5739 5741 5744 5746 5749 5751 5753 5755 5758 5761 5763 5765 5767 5768 5770 5771 5773 5775 5776 5777 5779 5780
5677 5679 5680 5682 5684 5685 5688 5690 5693 5696 5699 5701 5704 5708 5711 5713 5716 5719 5721 5724 5727 5729 5732 5734 5737 5739 5742 5744 5746 5749 5752 5754 5757 5758 5760 5761 5763 5764 5766 5767 5768 5770 5771
5665 5667 5669 5670 5672 5673 5676 5678 5681 5684 5687 5690 5693 5697 5700 5703 5706 5708 5711 5714 5717 5719 5722 5725 5727 5730 5732 5735 5737 5740 5742 5745 5747 5749 5751 5753 5754 5755 5756 5758 5759 5760 5762
5653 5655 5657 5659 5660 5662 5664 5666 5669 5673 5676 5678 5682 5686 5689 5692 5695 5698 5701 5704 5706 5709 5712 5715 5718 5720 5723 5725 5728 5730 5732 5735 5737 5739 5741 5743 5744 5746 5747 5748 5749 5750 5751